Home > Weather > Apolda > Past weeks

Flag for Germany Weather for the Past 2 Weeks in Apolda, Thuringia, Germany

Now
37 °F

Sunny.


Feels Like: 31 °F
Forecast: 37 / 61 °F
Wind: 8 mph from West

Location: Erfurt-Bindersleben

Current Time: May 4, 2016 at 8:34:05 AM

Latest Report: May 4, 2016 at 7:20 AM


Visibility: 10 mi

Pressure: 30.36 "Hg

Humidity: 93%

Dew Point: 36 °F

Location of ApoldaLocation

Historic Weather in Apolda — Graph

°F

Apolda Temperature Yesterday

Maximum temperature yesterday: 57 °F (at 10:20 AM)
Minimum temperature yesterday: 37 °F (at 4:20 AM)
Average temperature yesterday: 48 °F

High & Low Weather Summary for the Past Weeks

 TemperatureHumidityPressure
High63 °F (May 2, 3:20 PM)100% (Apr 25, 2:20 AM)30.42 "Hg (Apr 25, 2:20 AM)
Low28 °F (Apr 24, 4:50 AM)41% (Apr 20, 5:50 PM)29.47 "Hg (Apr 26, 1:50 AM)
Average44 °F69%30.00 "Hg
* Reported Apr 19 7:20 AM — May 4 7:20 AM, Apolda, Weather by CustomWeather, © 2016

Note: Actual official high and low records may vary slightly from our data, if they occured in-between our weather recording intervals... More about our weather records

Advertising

Apolda Weather History for the Previous 24 Hours

Scroll right to see more
 ConditionsComfort  
Time TempWeatherWind HumidityBarometerVisibility
7:20 AM
Wed, May 4
37 °FSunny.8 mph93%30.36 "Hg10 mi
6:20 AM32 °FClear.7 mph93%30.33 "Hg10 mi
5:50 AM34 °FClear.8 mph93%30.33 "Hg10 mi
5:20 AM34 °FClear.9 mph93%30.33 "Hg10 mi
4:50 AM36 °FClear.9 mph93%30.33 "Hg10 mi
4:20 AM36 °FClear.9 mph93%30.30 "Hg10 mi
3:50 AM37 °FClear.9 mph87%30.30 "Hg10 mi
3:20 AM39 °FClear.9 mph87%30.30 "Hg10 mi
2:50 AM39 °FClear.10 mph93%30.30 "Hg10 mi
2:20 AM41 °FClear.10 mph87%30.30 "Hg10 mi
1:50 AM43 °FClear.13 mph81%30.30 "Hg10 mi
12:50 AM45 °FPassing clouds.10 mph81%30.27 "HgN/A
12:20 AM45 °FPassing clouds.9 mph87%30.27 "HgN/A
11:50 PM
Tue, May 3
45 °FClear.8 mph81%30.27 "Hg10 mi
11:20 PM45 °FClear.8 mph81%30.24 "Hg10 mi
10:50 PM45 °FClear.8 mph87%30.24 "Hg10 mi
10:20 PM46 °FClear.8 mph76%30.24 "Hg10 mi
9:50 PM46 °FLight rain. Partly cloudy.10 mph76%30.24 "HgN/A
9:20 PM46 °FLight rain. Clear.9 mph87%30.21 "HgN/A
8:50 PM46 °FLight rain. Partly sunny.9 mph87%30.21 "HgN/A
8:20 PM48 °FLight rain. Partly sunny.10 mph82%30.18 "HgN/A
7:50 PM48 °FPartly sunny.9 mph82%30.18 "HgN/A
7:20 PM48 °FPartly sunny.12 mph82%30.18 "HgN/A
6:50 PM48 °FPartly sunny.12 mph82%30.15 "HgN/A
6:20 PM48 °FPartly sunny.13 mph76%30.15 "HgN/A
5:50 PM48 °FPartly sunny.14 mph76%30.15 "HgN/A
5:20 PM48 °FLight rain. Partly sunny.15 mph71%30.12 "HgN/A
4:50 PM48 °FPartly sunny.15 mph76%30.12 "HgN/A
4:20 PM48 °FMostly cloudy.18 mph76%30.12 "HgN/A
3:50 PM48 °FBroken clouds.21 mph76%30.12 "HgN/A
3:20 PM50 °FBroken clouds.21 mph76%30.09 "HgN/A
2:50 PM52 °FBroken clouds.23 mph77%30.09 "HgN/A
2:20 PM54 °FScattered clouds.24 mph77%30.07 "HgN/A
1:20 PM57 °FBroken clouds.16 mph67%30.07 "HgN/A
12:50 PM57 °FBroken clouds.16 mph63%30.07 "HgN/A
12:20 PM57 °FBroken clouds.13 mph63%30.07 "HgN/A
11:50 AM57 °FSunny.13 mph59%30.07 "Hg10 mi
11:20 AM57 °FSunny.12 mph63%30.07 "Hg10 mi
10:50 AM57 °FSunny.9 mph63%30.04 "Hg10 mi
10:20 AM57 °FPassing clouds.6 mph63%30.04 "HgN/A
9:50 AM55 °FPassing clouds.6 mph67%30.04 "HgN/A
9:20 AM54 °FSunny.6 mph72%30.04 "Hg10 mi
8:50 AM52 °FPassing clouds.6 mph72%30.04 "HgN/A
8:20 AM48 °FPassing clouds.5 mph76%30.04 "HgN/A
Weather by CustomWeather, © 2016

See weather overviewHow to use our weather pages